Tracking 17149 objects as of 22-May-2015
HD Live streaming from Space Station

COSMOS 970 DEB


COSMOS 970 DEB is no longer on orbit
COSMOS 970 DEB is classified as:


NORAD ID: 17731
Int'l Code: 1977-121BN
Perigee: N/A
Apogee: N/A
Inclination: N/A
Period: N/A
Semi major axis: N/A
RCS: N/A
Launch date: December 21, 1977
Source: Commonwealth of Independent States (former USSR) (CIS)
Decay date: 1991-09-15

Note: This is SATELLITE DEBRIS
Your satellite tracking list
Your tracking list is empty





NASA's NSSDC Master Catalog

Two Line Element Set (TLE):
1 17731U 77121 BN 91256.82040475  .05916172 +25999-5 +18141-1 0  9996
2 17731 065.6218 047.6820 0045703 315.4246 044.3129 15.89675572169464

Source of the keplerian elements: AFSPC

N2YO: 382